www.pogodaiklimat.ru

Погода и климат >> Архив погоды >> Россия >> Коми >> Печора


АРХИВ ПОГОДЫ в Печоре

Время (UTC), дата Ветер
(напр.,м/с)
 
Видим.   Явления Облачность Т
(С)
Тd
(С)
f
(%)
Тe
(С)
Тes
(С)
Комфортность P
(гПа)
Po
(гПа)
Тmin
(С)
Tmax
(С)
R
(мм)
R24
(мм)
S
(см)
00 19.08 штиль 0 400 м туман ясно +6.7 +6.0 95 +6 +6 по сезону 1027.5 1020.3
03 19.08 ЮВ 1 8000 м дымка {туман} 10/0
[Ci fib]
+10.8 +10.0 95 +10 +12 по сезону 1028.3 1021.1 +6.3
06 19.08 ЮВ 1 15 км {туман} 1/0
[Ci fib]
+17.8 +12.2 70 +19 +26 тепло 1028.0 1021.0
09 19.08 ЮВ 1 15 км 4/3 600 м
[Cu hum Ci fib]
+21.1 +11.2 53 +23 +29 комфорт 1026.8 1019.9
12 19.08 В 1 15 км 3/3 1000 м
[Cu hum]
+22.0 +11.5 51 +24 +27 комфорт 1025.6 1018.7
15 19.08 В 1 15 км ясно +20.7 +11.1 54 +24 +24 комфорт 1024.4 1017.4 +22.4
18 19.08 В 2 15 км ясно +16.0 +12.0 77 +16 +16 тепло 1024.2 1017.2
21 19.08 ЮВ 2 15 км 1/0
[Ac trans]
+14.3 +11.1 81 +14 +14 тепло 1024.1 1017.0
00 20.08 ЮВ 3 15 км 3/0
[Ac trans]
+14.6 +11.0 79 +14 +14 тепло 1024.1 1017.0
03 20.08 ЮВ 2 15 км 6/0
[Ci fib]
+15.6 +11.7 78 +16 +17 тепло 1023.9 1016.8 +13.0
06 20.08 ЮВ 3 15 км 4/0
[Ci fib]
+20.0 +11.9 60 +22 +27 комфорт 1023.5 1016.5
09 20.08 ЮВ 4 15 км 3/0
[Ci fib]
+22.2 +11.5 51 +24 +29 комфорт 1022.1 1015.2
12 20.08 Ю 4 15 км 3/0
[Ac lent]
+22.7 +12.1 51 +25 +27 комфорт 1021.7 1014.9
15 20.08 ЮВ 2 15 км 3/0
[Ac trans]
+20.7 +11.8 57 +23 +24 комфорт 1021.4 1014.5 +23.0
18 20.08 ЮВ 4 15 км 6/0
[Ac trans Ci fib]
+17.2 +10.7 66 +17 +17 тепло 1022.1 1015.1
21 20.08 ЮВ 3 15 км 10/0
[Ac und]
+15.5 +9.1 66 +15 +15 тепло 1022.8 1015.7
00 21.08 ЮВ 3 15 км 9/0
[Ac trans]
+14.1 +7.6 65 +13 +13 тепло 1022.8 1015.7
03 21.08 ЮВ 3 8000 м слаб. ливневой дождь 10/5 1260 м
[Cb cap Ac und]
+12.4 +10.9 91 +11 +11 тепло 1022.5 1015.4 +12.2 1
06 21.08 ЮВ 2 15 км {ливн. осадки} 10/0
[Ac und]
+14.6 +11.8 83 +14 +16 тепло 1021.7 1014.7 +12.1
09 21.08 ЮВ 3 15 км 10/10
[Sc]
+19.4 +11.6 61 +21 +21 комфорт 1020.0 1013.1
12 21.08 Ю 2 15 км 9/0
[Ac trans Ci fib]
+20.6 +13.5 64 +24 +25 комфорт 1018.6 1011.7
15 21.08 Ю 3 5000 м слаб. ливневой дождь 10/6 840 м
[Cb cap Ac und]
+15.9 +14.9 94 +15 +15 тепло 1017.8 1010.9 +21.4 2
18 21.08 Ю 2 3300 м ливневой дождь 9/9 630 м
[Cb cap]
+15.4 +14.9 97 +15 +15 тепло 1016.6 1009.6
21 21.08 З 2 15 км в посл. час ливневой дождь 10/5 800 м
[Cb cap Ac und]
+15.2 +14.1 93 +15 +15 тепло 1015.9 1008.9
00 22.08 З 2 15 км в посл. час морось {ливн. осадки} 10/10 300 м
[St]
+15.3 +14.6 96 +15 +15 тепло 1016.5 1009.5
03 22.08 З 3 15 км 9/9 420 м
[Sc]
+14.6 +13.7 94 +14 +14 тепло 1017.4 1010.4 +14.6 14
06 22.08 З 2 15 км 9/9 600 м
[Cb cap]
+16.3 +13.6 84 +16 +17 тепло 1017.6 1010.6
09 22.08 СЗ 2 15 км 8/8 800 м
[Cb cap]
+18.8 +13.2 70 +20 +22 тепло 1017.4 1010.5
12 22.08 З 1 15 км 6/4 1000 м
[Cu med, cong Ci fib]
+20.6 +11.8 57 +24 +26 комфорт 1016.6 1009.7
15 22.08 Ю 1 15 км 10/4 1000 м
[Cb cap Cs]
+18.2 +13.3 73 +20 +20 тепло 1015.7 1008.8 +21.0
18 22.08 Ю 2 15 км 9/0
[Ac trans]
+16.1 +12.5 79 +16 +16 тепло 1014.4 1007.5
21 22.08 В 2 15 км 9/0
[Ac trans]
+13.9 +12.6 92 +13 +13 тепло 1012.8 1005.8
00 23.08 ЮВ 2 15 км 9/0
[Ac trans]
+13.5 +12.2 92 +13 +13 тепло 1009.9 1002.9
03 23.08 В 1 5000 м слаб. дождь 10/6 570 м
[Sc As op]
+13.1 +12.5 96 +13 +13 тепло 1007.8 1000.8 +13.0 1
06 23.08 С 1 6000 м слаб. дождь 10/5 1260 м
[Sc As op]
+13.8 +13.1 96 +14 +15 тепло 1004.4 997.4
09 23.08 С 2 6000 м слаб. дождь 10/6 600 м
[Sc As op]
+12.7 +12.1 96 +12 +12 по сезону 1002.4 995.4
12 23.08 С 5 3200 м дождь 10/8 300 м
[Frnb As op]
+12.6 +11.9 95 +10 +10 прохладно 1002.7 995.7
15 23.08 СЗ 5 3000 м дождь 10/8 360 м
[Frnb As op]
+12.9 +12.0 94 +11 +11 по сезону 1004.0 997.0 +13.8 31
18 23.08 СЗ 7-12
{12}
7000 м слаб. дождь 10/8 400 м
[Frnb As op]
+12.3 +11.5 95 +9 +9 по сезону 1006.6 999.6
21 23.08 СЗ 4
{12}
10 км в посл. час дождь 10/6 210 м
[Frnb As op]
+12.2 +11.4 95 +10 +10 тепло 1009.0 1002.0
00 24.08 СЗ 5
{12}
5000 м слаб. дождь 10/8 240 м
[Frnb As op]
+12.6 +12.0 96 +10 +10 тепло 1010.6 1003.6
03 24.08 СЗ 3 5000 м дымка {дождь} 10/10 330 м
[St]
+11.8 +10.8 94 +10 +10 по сезону 1012.3 1005.3 +11.7 12
06 24.08 СЗ 3 7000 м слаб. морось {дождь} 10/10 360 м
[St]
+10.9 +9.9 94 +9 +9 по сезону 1014.1 1006.9 +10.5
09 24.08 СЗ 3 15 км в посл. час морось 10/10 270 м
[St]
+10.8 +9.6 92 +9 +9 по сезону 1015.1 1007.9
12 24.08 СЗ 3 15 км {морось} 10/10 500 м
[Sc]
+10.4 +9.0 91 +8 +8 прохладно 1015.7 1008.5
15 24.08 С 2 15 км 10/10 540 м
[Sc]
+9.3 +7.4 88 +8 +8 по сезону 1016.0 1008.8 +12.3 0.0
18 24.08 штиль 0 15 км 10/10 930 м
[Sc]
+8.3 +7.0 92 +7 +7 по сезону 1015.8 1008.6
21 24.08 С 1 15 км 10/10 900 м
[Sc]
+8.4 +7.1 92 +8 +8 по сезону 1014.9 1007.7
00 25.08 СЗ 1 15 км 10/10 1020 м
[Sc]
+8.6 +7.8 95 +8 +8 по сезону 1014.5 1007.3
03 25.08 С 3 15 км 10/10 1080 м
[Sc]
+8.9 +6.5 85 +6 +6 по сезону 1014.5 1007.3 +8.0
06 25.08 С 3 15 км 9/9 1140 м
[Sc]
+10.5 +6.2 75 +9 +9 по сезону 1015.1 1007.9
09 25.08 С 4 15 км 10/10 1050 м
[Sc]
+10.5 +4.2 65 +8 +8 прохладно 1015.5 1008.3
12 25.08 С 5 15 км 10/10 1080 м
[Sc]
+10.3 +5.0 70 +7 +7 холодно 1016.7 1009.5
15 25.08 С 4 15 км 10/10 1000 м
[Sc]
+9.1 +4.6 73 +6 +6 прохладно 1017.8 1010.6 +12.7
18 25.08 С 3 15 км 10/8 1230 м
[Sc Ac und]
+8.0 +5.3 83 +5 +5 прохладно 1018.3 1011.1

 

Местоположение метеостанции Печора (Коми, Россия): широта 65.12 долгота 57.10 высота над уровнем моря 59 м.

В архиве по умолчанию представлена погода в Печоре за последнюю неделю. Архивные данные за месяц целиком и за предыдущие месяцы, начиная с января 2011 года, Вы можете получить, выбрав интересующий диапазон дат из раскрывающегося списка и нажав кнопку "Ввод!".


*Определитесь, кто Вы:
робот инопланетянин человек

Внимание! Время в таблицах - всемирное. Для получения местного времени необходимо прибавить поправку, которая равна 3 ч.

Смотрите также архив погоды в соседних городах и на ближайших метеорологических станциях:

Погода в Усть-Усе (Коми, Россия) (95 км)
Погода в Усть-Щугоре (Коми, Россия) (98 км)
Погода в Усинске (Коми, Россия) (102 км)
Погода в Ираеле (Коми, Россия) (105 км)
Погода в Мутном Материке (Коми, Россия) (128 км)
Погода в Вуктыле (Коми, Россия) (144 км)
Погода в Ижме (Коми, Россия) (150 км)
Погода в Кедва-Воме (Коми, Россия) (196 км)
Погода в Саранпауле (Ханты-Мансийский АО, Россия) (202 км)
Погода в Харуте (Ненецкий АО, Россия) (222 км)

Пояснения к столбцам:

Ветер - указаны скорость ветра в м/с - средняя за 10 мин, порывы в срок и между сроками (в фигурных скобках) и направление, откуда дует ветер: С - северный, СВ - северо-восточный, В - восточный, ЮВ - юго-восточный, Ю - южный, ЮЗ - юго-западный, З - западный, СЗ - северо-западный.
Видимость - горизонтальная дальность видимости в метрах или километрах. При видимости от 1 до 10 км при отсутствии осадков обычно наблюдается дымка, при ухудшении видимости до 1 км и менее - туман. В сухую погоду видимость может ухудшаться дымом, пылью или мглою.
Явления - указаны атмосферные явления, наблюдавшиеся в срок или в последний час перед сроком; фигурными скобками обозначены явления, наблюдавшиеся между сроками (за 1-3 часа до срока); квадратными скобками обозначены град или гололедные отложения с указанием их диаметра в мм.
Облачность - указаны через наклонную черту общая и нижняя облачность в баллах и высота нижней границы облаков в метрах; квадратными скобками обозначены формы облаков: Ci - перистые, Cs - перисто-слоистые, Cc - перисто-кучевые, Ac - высококучевые, As - высокослоистые, Sc - слоисто-кучевые, Ns - слоисто-дождевые, Cu - кучевые, Cb - кучево-дождевые. Подробнее классификацию облаков см. в Атласе облаков (PDF).
T - Температура воздуха - температура, измеренная на высоте 2 м над землей.
Td - Температура точки росы - температура, при понижении до которой содержащийся в воздухе водяной пар достигнет насыщения.
f - Относительная влажность воздуха - влажноcть воздуха, измеренная на высоте 2 м над землей.
Te - Эффективная температура - температура, которую ощущает одетый по сезону человек в тени. Характеристика душности погоды. При расчете учитывается влияние влажности воздуха и скорости ветра на теплоощущения человека.
Tes - Эффективная температура на солнце - температура, которую ощущает человек, с поправкой на солнечный нагрев. Характеристика знойности погоды. Зависит от высоты солнца над горизонтом, облачности и скорости ветра. Ночью, в пасмурную погоду, а также при ветре 12 м/с и более поправка равна нулю.
P - Атмосферное давление - приведенное к уровню моря атмосферное давление.
Po - Атмосферное давление - измеренное на уровне метеостанции атмосферное давление.
Tmin - Минимальная температура - минимум температуры воздуха на высоте 2 м над землей.
Tmax - Максимальная температура - максимум температуры воздуха на высоте 2 м над землей.
R - Количество осадков - Количество выпавших осадков за период времени, мм. При наведении курсора мыши на число - период времени, за который выпало указанное количество осадков.
R24 - Количество осадков - Количество выпавших осадков за 24 часа, мм.
S - Снежный покров - Высота снежного покрова, см. При наведении курсора мыши на число - состояние снежного покрова и степень покрытия местности в баллах.